Probability
0 0 0 0 0 0 0 0 0 0 0 0 0 0 0 0 0 0 0 0 1 3 4 5 9 23 44 57 50 31 16 10 10 9 4 0 0 0 0 0 0 0 0
0 0 0 0 0 0 0 0 0 0 0 0 0 0 0 0 0 0 0 0 0 1 2 2 4 11 27 43 49 44 32 21 19 20 13 4 1 0 0 0 0 0 0
0 0 0 0 0 0 0 0 0 0 0 0 0 0 0 0 0 0 0 0 0 0 0 0 0 2 9 21 34 46 48 40 38 39 28 13 3 1 0 0 0 0 0
0 0 0 0 0 0 0 0 0 0 0 1 1 2 1 0 0 0 0 0 0 0 0 0 0 0 2 6 13 27 44 55 59 55 39 20 8 3 1 0 0 0 0
0 0 0 0 0 0 0 0 0 0 1 2 3 4 3 1 0 0 1 0 0 0 0 0 0 0 0 1 2 8 23 45 63 64 48 26 13 6 2 0 0 0 0
0 0 0 0 0 0 0 0 0 0 1 2 3 4 4 2 0 0 0 0 0 0 0 0 0 0 0 0 0 1 6 19 39 55 51 35 21 10 3 1 0 0 0
0 0 0 0 0 0 0 0 0 0 0 1 2 3 3 2 0 0 0 0 0 0 0 0 0 0 0 0 0 0 0 3 12 27 39 36 24 12 4 1 0 0 0
0 0 0 0 0 0 0 0 0 0 0 0 1 1 2 2 1 0 0 0 0 0 0 0 0 0 0 0 0 0 0 0 1 6 16 22 17 9 4 2 1 0 0
0 0 0 0 0 0 0 0 0 0 0 0 0 0 1 1 1 0 0 1 1 1 1 0 0 0 0 0 0 0 0 0 0 1 3 6 5 3 3 3 1 0 0
0 0 0 0 0 0 0 0 0 0 0 0 0 0 0 1 0 0 0 1 2 2 1 0 0 0 0 0 0 0 0 0 0 0 0 1 2 2 2 1 1 0 0
0 0 0 0 0 0 0 0 0 0 0 0 0 0 0 0 0 0 0 1 1 1 1 0 0 0 0 0 0 0 0 0 0 1 1 3 5 6 3 0 0 0 0
0 0 0 0 0 0 0 0 0 0 0 0 0 0 0 0 0 0 0 0 0 0 0 0 0 0 0 0 0 0 0 0 0 2 3 4 7 7 4 1 0 0 0
0 0 0 0 0 0 0 0 0 0 0 0 0 0 0 0 0 0 0 0 0 0 0 0 0 0 0 0 0 0 0 0 0 1 2 3 4 4 2 0 0 0 0
0 0 0 0 0 0 0 0 0 0 0 0 0 0 0 0 0 0 0 0 0 0 0 0 0 0 0 0 0 0 0 0 0 0 1 2 3 1 0 0 0 0 0
0 0 0 0 0 0 0 0 0 0 0 0 0 0 0 0 0 0 0 0 0 0 1 0 0 0 0 0 0 0 0 0 0 0 1 2 1 0 0 0 0 0 0
0 0 0 0 0 0 0 0 0 0 0 0 0 0 0 0 0 0 0 0 0 0 0 0 0 0 0 0 0 0 0 0 0 0 0 0 0 0 0 0 0 0 0
0 0 0 0 0 0 0 0 0 0 0 0 0 0 0 0 0 0 0 0 0 0 0 0 0 0 0 0 0 0 0 0 0 0 0 0 0 0 0 0 0 0 0
0 0 0 0 0 0 0 0 0 0 0 0 0 0 0 0 0 0 0 0 0 0 0 0 0 0 0 0 0 0 0 0 0 0 0 0 0 0 0 0 0 0 0
0 0 0 0 0 0 0 0 0 0 0 0 0 0 0 0 0 0 0 0 0 0 0 0 0 0 0 0 0 0 0 0 0 0 0 0 0 0 0 0 0 0 0
0 0 0 0 0 0 0 0 0 0 0 0 0 0 0 0 0 0 0 0 0 0 0 0 0 0 0 0 0 0 0 0 0 0 0 0 0 0 0 0 0 0 0
0 0 0 0 0 0 0 0 0 0 0 0 0 0 0 0 0 0 0 0 0 0 0 0 0 0 0 0 0 0 0 0 0 0 0 0 0 0 0 0 0 0 0
0 0 0 0 0 0 0 0 0 0 0 0 0 0 0 0 0 0 0 0 0 0 0 0 0 0 0 0 0 0 0 0 0 0 0 0 0 0 0 0 0 0 0
0 0 0 0 0 0 0 0 0 0 0 0 0 0 0 0 0 0 0 0 0 0 0 0 0 0 0 0 0 0 0 0 0 0 0 0 0 0 0 0 0 0 0
0 0 0 0 0 0 0 0 0 0 0 0 0 0 0 0 0 0 0 0 0 0 0 0 0 0 0 0 0 0 0 0 0 0 0 0 0 0 0 0 0 0 0
0 0 0 0 0 0 0 0 0 0 0 0 0 0 0 0 0 0 0 0 0 0 0 0 0 0 0 0 0 0 0 0 0 0 0 0 0 0 0 0 0 0 0
0 0 0 0 0 0 0 0 0 0 0 0 0 0 0 0 0 0 0 0 0 0 0 0 0 0 0 0 0 0 0 0 0 0 0 0 0 0 0 0 0 0 0
Wind_Speed
16 15 15 15 15 15 14 15 14 13 13 13 13 13 13 13 12 11 10 9 9 7 6 5 6 7 7 8 8 9 8 7 7 5 5 4 4 3 6 5 4 5 6
16 16 16 16 16 16 16 16 15 15 14 15 14 15 15 15 15 14 13 12 11 10 9 7 6 4 7 7 7 10 9 8 8 7 6 6 6 5 6 6 5 5 6
16 16 16 16 17 16 16 16 16 16 16 16 16 16 15 15 16 16 15 14 13 12 11 10 9 7 7 5 7 9 8 9 9 7 7 5 5 6 8 7 7 6 6
16 16 16 16 16 16 16 16 16 16 16 16 16 17 16 16 16 16 17 15 14 13 12 12 12 11 9 6 4 7 8 9 9 8 7 7 6 8 8 7 5 4 5
16 16 17 17 17 17 16 16 16 16 16 16 17 17 17 15 15 16 16 16 15 14 13 13 13 14 14 10 5 3 4 6 7 8 8 7 7 8 8 7 7 6 5
16 16 16 17 17 17 17 17 16 16 16 16 16 16 16 14 12 13 14 16 15 14 13 13 13 15 17 16 13 9 5 6 7 7 8 9 9 9 9 8 8 8 5
15 16 16 16 17 17 18 17 17 16 16 15 15 15 15 15 12 12 14 15 14 13 13 11 10 12 16 14 14 13 10 10 11 10 9 9 8 9 11 12 11 9 6
15 15 15 16 17 17 17 17 17 14 14 13 14 14 14 14 13 12 13 15 15 14 12 12 11 9 13 13 13 13 11 10 10 11 12 11 8 8 12 12 11 9 9
15 15 16 17 17 17 17 17 15 14 13 13 13 13 13 13 12 12 13 13 12 14 12 12 12 11 11 12 11 11 11 10 11 14 14 9 6 6 11 10 12 11 7
15 16 16 16 16 17 17 16 13 12 12 12 12 12 12 12 10 12 14 11 11 11 10 10 9 8 11 13 11 10 10 9 9 10 12 11 9 10 15 15 14 13 10
15 16 16 16 16 16 15 13 12 11 11 11 11 10 10 9 7 9 11 9 9 10 10 10 10 13 10 11 9 8 7 6 8 10 10 11 10 10 13 12 12 13 12
15 16 16 16 14 13 14 13 11 9 9 9 9 8 6 6 5 7 7 4 3 6 7 6 7 14 11 10 9 6 4 5 7 8 9 9 9 10 10 9 8 6 5
15 16 16 16 14 13 12 12 10 8 7 6 6 6 5 4 5 8 8 6 4 5 3 5 8 9 8 10 11 7 7 8 8 8 9 9 8 9 10 10 11 11 11
15 15 14 14 13 12 10 8 8 7 7 6 5 4 4 4 5 7 8 8 9 8 7 6 8 7 7 6 8 10 9 8 8 8 8 7 8 10 11 11 11 11 10
14 14 14 13 12 11 10 7 8 7 5 7 6 5 4 3 2 2 4 7 8 8 8 8 8 8 9 10 10 9 8 7 8 8 8 8 9 10 11 11 12 12 11
12 12 11 10 10 10 9 8 4 4 4 4 6 7 5 1 2 1 1 3 2 0 5 9 8 9 10 10 10 9 8 7 7 7 7 9 11 12 11 11 12 12 12
12 12 10 10 10 9 9 8 7 2 3 1 2 3 5 3 2 3 3 3 2 4 8 9 9 9 9 9 8 7 7 6 5 6 8 10 12 13 13 13 12 12 12
13 12 11 9 9 8 8 7 6 6 3 1 2 3 1 3 4 5 6 6 6 7 9 9 9 9 9 8 7 6 5 5 5 6 7 10 12 13 14 13 12 13 13
12 9 9 9 8 8 7 6 4 4 3 2 1 3 3 3 3 4 7 7 7 8 8 8 8 8 8 7 6 5 5 5 5 6 8 11 12 13 13 13 11 13 13
10 14 12 9 8 7 6 5 4 3 2 2 2 1 2 3 3 4 5 5 5 6 7 8 8 8 7 6 6 6 5 5 6 7 8 10 11 11 13 13 12 12 11
9 10 13 10 6 6 6 5 4 3 2 2 1 2 4 2 2 4 4 5 5 6 6 7 7 7 7 6 6 6 7 6 6 7 9 10 11 11 10 10 12 12 11
8 9 9 8 6 5 6 5 4 3 3 2 0 2 3 4 1 2 3 3 4 4 4 5 6 5 6 6 6 7 7 7 7 8 10 10 11 12 12 12 12 11 11
9 9 9 7 6 5 5 3 3 3 3 3 2 1 1 2 1 1 2 2 2 3 3 4 4 4 4 4 5 6 7 7 8 10 11 12 12 12 12 12 13 13 12
9 9 9 8 7 6 5 4 3 3 3 3 3 2 2 2 2 1 1 1 2 3 3 3 3 3 5 5 5 5 6 7 9 10 14 14 14 12 12 12 12 13 12
8 9 9 8 7 6 5 4 4 4 4 4 3 3 2 2 2 1 1 1 2 2 3 2 2 4 6 8 8 7 7 8 8 10 12 12 14 14 13 13 12 12 12
8 8 8 7 7 6 5 4 4 3 3 3 3 3 3 3 3 2 1 1 1 2 2 3 5 6 7 7 10 10 8 7 6 7 9 11 13 12 13 11 14 12 13
Wind_Direction
315 316 314 310 309 305 299 293 287 281 279 273 265 260 252 243 234 226 229 218 223 230 231 237 249 264 265 249 231 222 219 226 229 198 180 159 175 178 139 116 99 87 79
315 313 309 307 304 302 299 299 296 288 279 271 267 263 258 250 239 230 229 222 217 218 220 222 231 247 262 267 255 236 222 216 224 216 193 181 182 168 137 116 100 85 82
315 311 309 307 305 303 302 299 296 291 283 276 269 262 257 253 246 236 232 227 222 221 216 216 218 213 233 245 264 254 235 216 218 218 202 180 178 151 134 117 104 94 89
314 312 309 308 307 305 302 299 295 291 287 279 270 263 257 251 246 240 233 230 226 224 218 214 212 207 211 213 242 264 254 231 213 214 203 189 182 163 155 143 131 114 96
313 309 309 309 308 305 303 301 298 294 289 284 278 268 258 251 243 237 233 229 225 225 221 218 214 208 202 200 200 235 278 257 225 210 205 199 188 172 171 160 141 127 94
309 308 310 309 307 306 304 300 296 293 291 287 280 273 263 253 240 228 232 233 228 225 224 221 218 204 201 197 197 202 232 272 266 233 215 211 198 184 169 157 150 153 134
306 306 307 308 308 305 304 303 299 296 293 288 283 275 267 261 250 226 226 237 231 224 220 218 221 205 193 196 196 199 215 241 263 273 259 239 213 188 171 169 174 170 137
306 308 311 311 308 306 304 301 297 294 290 286 283 278 271 262 244 223 215 230 233 222 214 209 216 204 193 192 190 193 201 214 231 248 258 260 251 199 180 175 157 120 110
309 313 313 311 309 306 302 299 298 294 287 283 281 279 273 265 242 217 207 224 223 218 211 205 203 199 179 182 196 198 201 209 218 236 249 266 291 202 171 156 146 142 131
312 313 312 310 307 305 303 301 297 291 286 283 278 274 272 267 240 208 204 220 213 208 206 204 202 206 167 179 204 205 210 212 213 218 226 229 224 181 166 170 166 160 144
311 310 310 309 308 306 306 303 300 294 287 282 279 273 269 261 219 193 201 223 205 206 198 199 190 168 170 188 218 226 222 223 220 218 219 216 207 189 181 179 177 171 161
307 307 310 311 312 311 310 307 304 300 291 284 278 272 259 239 202 176 187 216 274 220 208 202 148 152 172 191 214 224 212 225 232 222 216 208 195 184 175 168 154 139 128
304 305 308 311 311 309 310 312 309 303 294 289 282 275 252 218 179 168 180 191 223 247 232 70 102 142 173 202 218 212 211 224 228 222 214 204 191 169 150 136 119 103 99
302 304 306 308 309 311 311 311 312 312 308 301 295 282 253 222 198 184 188 191 201 220 230 185 167 179 224 245 198 198 217 224 225 222 212 190 164 151 147 143 137 131 126
302 301 303 305 309 308 309 312 313 316 317 306 308 308 282 245 196 168 205 204 211 212 215 215 213 204 208 213 215 212 212 212 217 222 205 177 159 151 149 148 147 148 147
303 302 300 303 306 308 312 314 284 265 294 286 281 287 291 323 73 157 253 293 314 69 227 224 219 220 220 214 211 208 206 210 212 210 192 173 160 154 151 153 155 156 153
306 301 297 298 303 310 314 318 327 310 194 163 355 302 270 292 249 229 227 230 228 198 224 230 223 222 222 217 214 210 207 200 199 195 184 169 158 154 154 156 159 159 158
311 302 295 292 298 305 311 318 330 336 355 73 93 46 311 227 223 216 197 193 194 204 224 228 224 221 219 218 213 203 201 195 189 185 178 166 158 155 156 160 163 161 159
314 307 302 298 298 303 311 320 333 345 3 24 53 97 95 127 147 173 189 211 202 199 214 224 225 221 216 212 208 198 196 192 188 180 176 165 158 156 158 162 161 159 161
314 310 308 301 299 306 319 327 336 351 5 37 56 72 154 173 157 166 198 214 214 205 209 219 222 222 214 208 200 190 188 186 184 182 173 161 155 155 157 159 159 163 167
314 312 306 297 304 318 327 336 341 353 3 25 61 57 334 278 167 178 196 206 214 211 213 221 223 217 211 205 198 192 185 183 182 176 163 155 151 152 156 159 162 168 171
314 311 311 315 319 324 332 339 346 351 5 4 330 164 239 270 238 191 212 217 221 226 229 231 230 219 208 201 188 183 179 175 172 168 158 154 153 155 158 161 166 172 173
319 320 320 316 314 311 306 346 3 3 1 356 347 327 258 297 307 272 257 245 242 243 243 240 233 216 198 183 173 174 174 171 169 165 159 155 154 155 157 159 162 165 168
325 327 326 325 321 321 336 3 17 14 17 8 356 352 349 341 335 333 303 276 249 249 242 231 218 184 171 157 156 160 162 163 165 166 160 153 150 149 148 151 159 166 169
331 332 331 330 327 326 332 349 17 24 21 11 4 359 10 17 5 342 290 257 240 234 227 203 164 148 150 153 147 142 142 151 161 157 153 148 145 144 147 153 155 159 160
337 337 335 333 332 331 333 339 4 23 29 22 16 18 23 16 4 2 354 20 123 138 136 127 127 133 138 134 128 127 127 128 133 146 148 144 143 145 149 152 154 156 156